Time,TemperatureF,DewpointF,PressureIn,WindDirection,WindDirectionDegrees,WindSpeedMPH,WindSpeedGustMPH,Humidity,HourlyPrecipIn,Conditions,Clouds,dailyrainin,SoftwareType,DateUTC
2013-03-27 00:23:00,26.8,23.1,29.32,WNW,292,2.0,2.0,86,0.00,,,0.00,WUHU21623XXSP,2013-03-27 05:23:00,
2013-03-27 00:28:00,26.8,23.1,29.32,WNW,292,2.0,2.0,86,0.00,,,0.00,WUHU21623XXSP,2013-03-27 05:28:00,
2013-03-27 00:33:00,27.0,23.3,29.32,WNW,292,2.0,2.0,86,0.00,,,0.00,WUHU21623XXSP,2013-03-27 05:33:00,
2013-03-27 00:38:00,27.0,23.3,29.32,WNW,292,2.0,2.0,86,0.00,,,0.00,WUHU21623XXSP,2013-03-27 05:38:00,
2013-03-27 00:43:00,27.0,23.3,29.32,WNW,292,2.0,2.0,86,0.00,,,0.00,WUHU21623XXSP,2013-03-27 05:43:00,
2013-03-27 00:48:00,27.0,23.3,29.32,WNW,292,2.0,2.0,86,0.00,,,0.00,WUHU21623XXSP,2013-03-27 05:48:00,
2013-03-27 00:49:00,27.0,23.3,29.32,WNW,292,2.0,2.0,86,0.00,,,0.00,WUHU21623XXSP,2013-03-27 05:49:00,
2013-03-27 00:53:00,27.0,23.3,29.32,WNW,292,2.0,2.0,86,0.00,,,0.00,WUHU21623XXSP,2013-03-27 05:53:00,
2013-03-27 00:59:00,27.0,23.3,29.32,WNW,292,2.0,2.0,86,0.00,,,0.00,WUHU21623XXSP,2013-03-27 05:59:00,
2013-03-27 01:34:00,26.4,23.3,29.32,WNW,292,0.0,0.0,88,0.00,,,0.00,WUHU21623XXSP,2013-03-27 06:34:00,
2013-03-27 01:39:00,26.4,23.3,29.33,WNW,292,0.0,0.0,88,0.00,,,0.00,WUHU21623XXSP,2013-03-27 06:39:00,
2013-03-27 01:44:00,26.4,23.3,29.33,WNW,292,0.0,0.0,88,0.00,,,0.00,WUHU21623XXSP,2013-03-27 06:44:00,
2013-03-27 01:49:00,26.4,23.3,29.32,WNW,292,0.0,0.0,88,0.00,,,0.00,WUHU21623XXSP,2013-03-27 06:49:00,
2013-03-27 01:54:00,26.4,23.3,29.33,WNW,292,0.0,0.0,88,0.00,,,0.00,WUHU21623XXSP,2013-03-27 06:54:00,
2013-03-27 01:59:00,26.4,23.3,29.33,WNW,292,0.0,0.0,88,0.00,,,0.00,WUHU21623XXSP,2013-03-27 06:59:00,
2013-03-27 02:04:00,26.4,23.3,29.33,West,270,0.0,0.0,88,0.00,,,0.00,WUHU21623XXSP,2013-03-27 07:04:00,
2013-03-27 02:09:00,26.2,23.3,29.33,West,270,0.0,0.0,88,0.00,,,0.00,WUHU21623XXSP,2013-03-27 07:09:00,
2013-03-27 02:14:00,26.2,23.1,29.32,West,270,1.6,1.6,88,0.00,,,0.00,WUHU21623XXSP,2013-03-27 07:14:00,
2013-03-27 02:19:00,26.2,23.1,29.33,West,270,1.3,1.8,88,0.00,,,0.00,WUHU21623XXSP,2013-03-27 07:19:00,
2013-03-27 02:24:00,26.2,23.1,29.33,West,270,1.1,1.8,88,0.00,,,0.00,WUHU21623XXSP,2013-03-27 07:24:00,
2013-03-27 02:29:00,26.2,23.1,29.32,WNW,292,0.0,1.1,88,0.00,,,0.00,WUHU21623XXSP,2013-03-27 07:29:00,
2013-03-27 02:34:00,26.2,23.1,29.33,WNW,292,0.0,1.1,88,0.00,,,0.00,WUHU21623XXSP,2013-03-27 07:34:00,
2013-03-27 02:39:00,26.2,23.1,29.32,WNW,292,0.0,0.0,88,0.00,,,0.00,WUHU21623XXSP,2013-03-27 07:39:00,
2013-03-27 02:45:00,26.2,23.1,29.32,WNW,292,0.0,0.0,88,0.00,,,0.00,WUHU21623XXSP,2013-03-27 07:45:00,
2013-03-27 02:50:00,26.2,23.1,29.32,WNW,292,0.0,0.0,88,0.00,,,0.00,WUHU21623XXSP,2013-03-27 07:50:00,
2013-03-27 02:55:00,26.1,23.0,29.32,WNW,292,0.0,0.0,88,0.00,,,0.00,WUHU21623XXSP,2013-03-27 07:55:00,
2013-03-27 03:00:00,25.9,23.0,29.32,West,270,1.1,1.1,88,0.00,,,0.00,WUHU21623XXSP,2013-03-27 08:00:00,
2013-03-27 03:05:00,26.1,23.0,29.32,West,270,0.0,1.1,88,0.00,,,0.00,WUHU21623XXSP,2013-03-27 08:05:00,
2013-03-27 03:10:00,26.1,23.0,29.32,West,270,0.0,0.0,88,0.00,,,0.00,WUHU21623XXSP,2013-03-27 08:10:00,
2013-03-27 03:15:00,25.9,22.8,29.32,West,270,2.0,2.0,88,0.00,,,0.00,WUHU21623XXSP,2013-03-27 08:15:00,
2013-03-27 03:20:00,25.9,23.0,29.32,West,270,0.0,2.0,88,0.00,,,0.00,WUHU21623XXSP,2013-03-27 08:20:00,
2013-03-27 03:25:00,26.1,22.8,29.32,West,270,0.0,0.0,88,0.00,,,0.00,WUHU21623XXSP,2013-03-27 08:25:00,
2013-03-27 03:30:00,25.9,22.8,29.32,West,270,0.0,0.0,88,0.00,,,0.00,WUHU21623XXSP,2013-03-27 08:30:00,
2013-03-27 03:35:00,25.7,22.8,29.32,West,270,0.0,0.0,88,0.00,,,0.00,WUHU21623XXSP,2013-03-27 08:35:00,
2013-03-27 03:40:00,25.7,22.6,29.31,West,270,0.0,0.0,88,0.00,,,0.00,WUHU21623XXSP,2013-03-27 08:40:00,
2013-03-27 03:45:00,25.5,22.4,29.31,West,270,0.0,0.9,88,0.00,,,0.00,WUHU21623XXSP,2013-03-27 08:45:00,
2013-03-27 03:50:00,25.7,22.6,29.31,West,270,1.1,2.0,88,0.00,,,0.00,WUHU21623XXSP,2013-03-27 08:50:00,
2013-03-27 03:55:00,25.7,22.6,29.31,West,270,0.0,2.0,88,0.00,,,0.00,WUHU21623XXSP,2013-03-27 08:55:00,
2013-03-27 04:00:00,25.9,22.8,29.31,West,270,0.0,1.1,88,0.00,,,0.00,WUHU21623XXSP,2013-03-27 09:00:00,
2013-03-27 04:05:00,25.9,22.8,29.31,West,270,1.6,1.6,88,0.00,,,0.00,WUHU21623XXSP,2013-03-27 09:05:00,
2013-03-27 04:10:00,25.9,23.1,29.31,WNW,292,0.0,1.6,89,0.00,,,0.00,WUHU21623XXSP,2013-03-27 09:10:00,
2013-03-27 04:15:00,25.9,23.1,29.31,WNW,292,0.0,0.0,89,0.00,,,0.00,WUHU21623XXSP,2013-03-27 09:15:00,
2013-03-27 04:20:00,25.9,23.1,29.31,WNW,292,0.0,0.0,89,0.00,,,0.00,WUHU21623XXSP,2013-03-27 09:20:00,
2013-03-27 04:25:00,25.9,23.1,29.31,WNW,292,0.0,0.0,89,0.00,,,0.00,WUHU21623XXSP,2013-03-27 09:25:00,
2013-03-27 04:30:00,25.9,23.1,29.31,WNW,292,0.0,0.0,89,0.00,,,0.00,WUHU21623XXSP,2013-03-27 09:30:00,
2013-03-27 04:35:00,25.9,23.1,29.31,WNW,292,0.0,0.0,89,0.00,,,0.00,WUHU21623XXSP,2013-03-27 09:35:00,
2013-03-27 04:40:00,25.9,23.1,29.31,WNW,292,0.0,0.0,89,0.00,,,0.00,WUHU21623XXSP,2013-03-27 09:40:00,
2013-03-27 04:45:00,25.9,23.1,29.31,WNW,292,0.0,0.0,89,0.00,,,0.00,WUHU21623XXSP,2013-03-27 09:45:00,
2013-03-27 04:50:00,25.9,23.1,29.31,WNW,292,1.3,1.3,89,0.00,,,0.00,WUHU21623XXSP,2013-03-27 09:50:00,
2013-03-27 04:55:00,25.7,22.9,29.31,WNW,292,2.0,2.2,89,0.00,,,0.00,WUHU21623XXSP,2013-03-27 09:55:00,
2013-03-27 05:00:00,25.5,22.7,29.31,NW,315,2.2,2.2,89,0.00,,,0.00,WUHU21623XXSP,2013-03-27 10:00:00,
2013-03-27 05:05:00,25.5,22.7,29.31,NW,315,2.2,2.2,89,0.00,,,0.00,WUHU21623XXSP,2013-03-27 10:05:00,
2013-03-27 05:10:00,25.5,22.7,29.32,WNW,292,0.9,2.9,89,0.00,,,0.00,WUHU21623XXSP,2013-03-27 10:10:00,
2013-03-27 05:15:00,25.5,22.7,29.31,WNW,292,2.0,2.9,89,0.00,,,0.00,WUHU21623XXSP,2013-03-27 10:15:00,
2013-03-27 05:20:00,25.5,22.7,29.32,WNW,292,1.3,2.7,89,0.00,,,0.00,WUHU21623XXSP,2013-03-27 10:20:00,
2013-03-27 05:25:00,25.5,22.7,29.32,WNW,292,1.3,2.9,89,0.00,,,0.00,WUHU21623XXSP,2013-03-27 10:25:00,
2013-03-27 05:30:00,25.5,22.7,29.32,WNW,292,2.0,2.9,89,0.00,,,0.00,WUHU21623XXSP,2013-03-27 10:30:00,
2013-03-27 05:35:00,25.5,22.7,29.32,WNW,292,2.7,2.7,89,0.00,,,0.00,WUHU21623XXSP,2013-03-27 10:35:00,
2013-03-27 05:40:00,25.3,22.5,29.32,WNW,292,2.5,2.7,89,0.00,,,0.00,WUHU21623XXSP,2013-03-27 10:40:00,
2013-03-27 05:45:00,25.3,22.5,29.32,WNW,292,0.0,2.5,89,0.00,,,0.00,WUHU21623XXSP,2013-03-27 10:45:00,
2013-03-27 05:50:00,25.3,22.5,29.32,WNW,292,0.0,0.0,89,0.00,,,0.00,WUHU21623XXSP,2013-03-27 10:50:00,
2013-03-27 05:55:00,25.3,22.5,29.33,WNW,292,2.7,2.7,89,0.00,,,0.00,WUHU21623XXSP,2013-03-27 10:55:00,
2013-03-27 06:00:00,25.2,22.4,29.34,WNW,292,1.3,2.7,89,0.00,,,0.00,WUHU21623XXSP,2013-03-27 11:00:00,
2013-03-27 06:05:00,25.2,22.4,29.33,WNW,292,2.0,2.5,89,0.00,,,0.00,WUHU21623XXSP,2013-03-27 11:05:00,
2013-03-27 06:10:00,25.0,22.2,29.33,WNW,292,0.7,2.5,89,0.00,,,0.00,WUHU21623XXSP,2013-03-27 11:10:00,
2013-03-27 06:15:00,24.8,22.0,29.33,NW,315,0.0,2.5,89,0.00,,,0.00,WUHU21623XXSP,2013-03-27 11:15:00,
2013-03-27 06:20:00,24.6,21.8,29.33,NW,315,2.0,2.0,89,0.00,,,0.00,WUHU21623XXSP,2013-03-27 11:20:00,
2013-03-27 06:25:00,24.6,21.8,29.33,NNW,337,0.9,2.0,89,0.00,,,0.00,WUHU21623XXSP,2013-03-27 11:25:00,
2013-03-27 06:30:00,24.4,21.6,29.33,NNW,337,1.6,1.6,89,0.00,,,0.00,WUHU21623XXSP,2013-03-27 11:30:00,
2013-03-27 06:35:00,24.4,21.6,29.34,NNW,337,2.2,2.2,89,0.00,,,0.00,WUHU21623XXSP,2013-03-27 11:35:00,
2013-03-27 06:40:00,24.4,21.6,29.33,NNW,337,2.5,2.7,89,0.00,,,0.00,WUHU21623XXSP,2013-03-27 11:40:00,
2013-03-27 06:45:00,24.4,21.6,29.34,NW,315,2.5,2.7,89,0.00,,,0.00,WUHU21623XXSP,2013-03-27 11:45:00,
2013-03-27 06:50:00,24.4,21.6,29.34,WNW,292,0.0,2.5,89,0.00,,,0.00,WUHU21623XXSP,2013-03-27 11:50:00,
2013-03-27 06:55:00,24.6,21.8,29.34,WNW,292,0.0,2.5,89,0.00,,,0.00,WUHU21623XXSP,2013-03-27 11:55:00,
2013-03-27 07:00:00,24.6,21.8,29.34,WNW,292,0.0,0.0,89,0.00,,,0.00,WUHU21623XXSP,2013-03-27 12:00:00,
2013-03-27 07:05:00,24.4,21.8,29.34,WNW,292,0.9,0.9,89,0.00,,,0.00,WUHU21623XXSP,2013-03-27 12:05:00,
2013-03-27 07:10:00,24.4,21.6,29.34,NW,315,2.2,2.2,89,0.00,,,0.00,WUHU21623XXSP,2013-03-27 12:10:00,
2013-03-27 07:15:00,24.4,21.6,29.34,NW,315,2.5,2.5,89,0.00,,,0.00,WUHU21623XXSP,2013-03-27 12:15:00,
2013-03-27 07:20:00,24.4,21.6,29.34,NW,315,0.0,2.5,89,0.00,,,0.00,WUHU21623XXSP,2013-03-27 12:20:00,
2013-03-27 07:25:00,24.4,21.6,29.34,NW,315,0.0,2.5,89,0.00,,,0.00,WUHU21623XXSP,2013-03-27 12:25:00,
2013-03-27 07:30:00,24.4,21.5,29.34,NW,315,0.0,2.0,89,0.00,,,0.00,WUHU21623XXSP,2013-03-27 12:30:00,
2013-03-27 07:35:00,24.4,21.6,29.34,NW,315,0.7,0.7,89,0.00,,,0.00,WUHU21623XXSP,2013-03-27 12:35:00,
2013-03-27 07:40:00,24.6,21.8,29.34,NW,315,0.0,0.7,89,0.00,,,0.00,WUHU21623XXSP,2013-03-27 12:40:00,
2013-03-27 07:46:00,24.8,22.0,29.34,NW,315,1.1,1.1,89,0.00,,,0.00,WUHU21623XXSP,2013-03-27 12:46:00,
2013-03-27 07:51:00,25.0,22.2,29.34,NW,315,0.0,2.0,89,0.00,,,0.00,WUHU21623XXSP,2013-03-27 12:51:00,
2013-03-27 07:56:00,25.3,22.4,29.34,NW,315,0.0,2.0,89,0.00,,,0.00,WUHU21623XXSP,2013-03-27 12:56:00,
2013-03-27 08:01:00,25.3,22.5,29.34,NW,315,0.0,0.0,89,0.00,,,0.00,WUHU21623XXSP,2013-03-27 13:01:00,
2013-03-27 08:06:00,25.5,23.0,29.34,WNW,292,0.9,0.9,90,0.00,,,0.00,WUHU21623XXSP,2013-03-27 13:06:00,
2013-03-27 08:11:00,25.9,23.4,29.34,WNW,292,1.3,1.3,90,0.00,,,0.00,WUHU21623XXSP,2013-03-27 13:11:00,
2013-03-27 08:16:00,26.1,23.4,29.34,WNW,292,1.3,1.3,90,0.00,,,0.00,WUHU21623XXSP,2013-03-27 13:16:00,
2013-03-27 08:21:00,26.2,23.7,29.34,WNW,292,0.0,1.3,90,0.00,,,0.00,WUHU21623XXSP,2013-03-27 13:21:00,
2013-03-27 08:26:00,26.6,23.9,29.35,WNW,292,0.0,1.3,90,0.00,,,0.00,WUHU21623XXSP,2013-03-27 13:26:00,
2013-03-27 08:31:00,27.0,24.4,29.34,WNW,292,2.0,2.0,90,0.00,,,0.00,WUHU21623XXSP,2013-03-27 13:31:00,
2013-03-27 08:36:00,27.1,24.6,29.35,WNW,292,0.0,2.0,90,0.00,,,0.00,WUHU21623XXSP,2013-03-27 13:36:00,
2013-03-27 08:41:00,27.5,25.0,29.35,WNW,292,0.0,0.0,90,0.00,,,0.00,WUHU21623XXSP,2013-03-27 13:41:00,
2013-03-27 08:46:00,27.7,25.0,29.35,NW,315,0.0,1.6,90,0.00,,,0.00,WUHU21623XXSP,2013-03-27 13:46:00,
2013-03-27 08:51:00,28.0,25.5,29.35,NW,315,2.5,2.5,90,0.00,,,0.00,WUHU21623XXSP,2013-03-27 13:51:00,
2013-03-27 08:56:00,28.2,25.7,29.35,NW,315,1.6,2.5,90,0.00,,,0.00,WUHU21623XXSP,2013-03-27 13:56:00,
2013-03-27 09:01:00,28.2,25.7,29.35,NW,315,1.6,1.6,90,0.00,,,0.00,WUHU21623XXSP,2013-03-27 14:01:00,
2013-03-27 09:06:00,28.2,25.7,29.35,NW,315,1.6,1.6,90,0.00,,,0.00,WUHU21623XXSP,2013-03-27 14:06:00,
2013-03-27 09:11:00,28.2,25.7,29.35,NW,315,1.6,1.6,90,0.00,,,0.00,WUHU21623XXSP,2013-03-27 14:11:00,
2013-03-27 09:16:00,28.2,25.7,29.35,NW,315,1.6,1.6,90,0.00,,,0.00,WUHU21623XXSP,2013-03-27 14:16:00,
2013-03-27 10:25:00,33.6,26.8,29.35,WNW,292,2.9,2.9,76,0.00,,,0.00,WUHU21623XXSP,2013-03-27 15:25:00,
2013-03-27 10:30:00,33.6,26.4,29.36,NW,315,2.0,2.9,75,0.00,,,0.00,WUHU21623XXSP,2013-03-27 15:30:00,
2013-03-27 10:35:00,34.2,26.8,29.36,WNW,292,0.9,2.9,75,0.00,,,0.00,WUHU21623XXSP,2013-03-27 15:35:00,
2013-03-27 10:40:00,34.5,26.8,29.36,WNW,292,0.9,0.9,74,0.00,,,0.00,WUHU21623XXSP,2013-03-27 15:40:00,
2013-03-27 10:45:00,34.9,26.9,29.36,WNW,292,1.3,1.3,73,0.00,,,0.00,WUHU21623XXSP,2013-03-27 15:45:00,
2013-03-27 10:50:00,34.9,27.0,29.36,WNW,292,3.4,3.4,73,0.00,,,0.00,WUHU21623XXSP,2013-03-27 15:50:00,
2013-03-27 10:55:00,35.4,27.2,29.36,NNW,337,0.0,3.4,72,0.00,,,0.00,WUHU21623XXSP,2013-03-27 15:55:00,
2013-03-27 11:00:00,35.8,27.0,29.36,WSW,247,1.3,1.6,70,0.00,,,0.00,WUHU21623XXSP,2013-03-27 16:00:00,
2013-03-27 11:05:00,36.1,27.0,29.36,WNW,292,0.9,1.6,70,0.00,,,0.00,WUHU21623XXSP,2013-03-27 16:05:00,
2013-03-27 11:10:00,36.3,27.1,29.37,West,270,0.0,1.3,69,0.00,,,0.00,WUHU21623XXSP,2013-03-27 16:10:00,
2013-03-27 11:15:00,36.7,27.1,29.36,WSW,247,0.0,0.0,68,0.00,,,0.00,WUHU21623XXSP,2013-03-27 16:15:00,
2013-03-27 11:20:00,37.0,27.5,29.36,WSW,247,2.5,2.5,68,0.00,,,0.00,WUHU21623XXSP,2013-03-27 16:20:00,
2013-03-27 11:25:00,37.6,27.4,29.36,SW,225,0.0,2.5,67,0.00,,,0.00,WUHU21623XXSP,2013-03-27 16:25:00,
2013-03-27 11:30:00,37.8,27.6,29.36,SW,225,0.0,2.5,66,0.00,,,0.00,WUHU21623XXSP,2013-03-27 16:30:00,
2013-03-27 11:35:00,38.1,27.7,29.36,SW,225,0.0,0.0,66,0.00,,,0.00,WUHU21623XXSP,2013-03-27 16:35:00,
2013-03-27 11:40:00,38.5,27.7,29.36,SW,225,0.9,1.6,65,0.00,,,0.00,WUHU21623XXSP,2013-03-27 16:40:00,
2013-03-27 11:45:00,38.7,27.4,29.36,SSW,202,1.6,2.9,64,0.00,,,0.00,WUHU21623XXSP,2013-03-27 16:45:00,
2013-03-27 11:50:00,38.8,27.2,29.36,South,180,1.6,2.9,63,0.00,,,0.00,WUHU21623XXSP,2013-03-27 16:50:00,
2013-03-27 11:55:00,39.0,27.4,29.36,WSW,247,0.0,1.8,63,0.00,,,0.00,WUHU21623XXSP,2013-03-27 16:55:00,
2013-03-27 12:00:00,39.4,27.7,29.36,SW,225,0.0,1.8,63,0.00,,,0.00,WUHU21623XXSP,2013-03-27 17:00:00,
2013-03-27 12:05:00,39.4,27.4,29.36,SSE,157,0.0,0.0,62,0.00,,,0.00,WUHU21623XXSP,2013-03-27 17:05:00,
2013-03-27 12:10:00,39.7,27.3,29.36,SSE,157,0.0,2.5,61,0.00,,,0.00,WUHU21623XXSP,2013-03-27 17:10:00,
2013-03-27 12:15:00,39.7,27.3,29.36,SW,225,2.2,2.5,61,0.00,,,0.00,WUHU21623XXSP,2013-03-27 17:15:00,
2013-03-27 12:20:00,39.9,27.1,29.36,WSW,247,2.7,2.7,60,0.00,,,0.00,WUHU21623XXSP,2013-03-27 17:20:00,
2013-03-27 12:25:00,39.6,26.3,29.36,WSW,247,1.3,2.7,59,0.00,,,0.00,WUHU21623XXSP,2013-03-27 17:25:00,
2013-03-27 12:30:00,39.4,26.1,29.36,WSW,247,3.6,3.6,59,0.00,,,0.00,WUHU21623XXSP,2013-03-27 17:30:00,
2013-03-27 12:36:00,39.0,25.4,29.36,WSW,247,1.8,3.6,58,0.00,,,0.00,WUHU21623XXSP,2013-03-27 17:36:00,
2013-03-27 12:41:00,39.0,25.8,29.36,WSW,247,0.9,1.8,58,0.00,,,0.00,WUHU21623XXSP,2013-03-27 17:41:00,
2013-03-27 12:46:00,39.0,25.4,29.36,WSW,247,0.9,1.3,58,0.00,,,0.00,WUHU21623XXSP,2013-03-27 17:46:00,
2013-03-27 12:51:00,39.4,25.7,29.36,SW,225,1.1,1.8,58,0.00,,,0.00,WUHU21623XXSP,2013-03-27 17:51:00,
2013-03-27 12:56:00,39.6,25.9,29.36,WSW,247,0.0,1.8,58,0.00,,,0.00,WUHU21623XXSP,2013-03-27 17:56:00,
2013-03-27 13:01:00,39.7,26.1,29.36,WSW,247,1.1,1.1,57,0.00,,,0.00,WUHU21623XXSP,2013-03-27 18:01:00,
2013-03-27 13:06:00,39.9,25.8,29.36,South,180,0.0,1.1,57,0.00,,,0.00,WUHU21623XXSP,2013-03-27 18:06:00,
2013-03-27 13:11:00,40.3,25.7,29.36,SE,135,3.6,3.6,56,0.00,,,0.00,WUHU21623XXSP,2013-03-27 18:11:00,
2013-03-27 13:16:00,40.6,26.1,29.36,SSE,157,3.8,3.8,56,0.00,,,0.00,WUHU21623XXSP,2013-03-27 18:16:00,
2013-03-27 13:21:00,41.0,26.2,29.36,South,180,1.6,3.8,56,0.00,,,0.00,WUHU21623XXSP,2013-03-27 18:21:00,
2013-03-27 13:26:00,41.4,27.2,29.36,ENE,67,0.0,1.6,57,0.00,,,0.00,WUHU21623XXSP,2013-03-27 18:26:00,
2013-03-27 13:31:00,41.4,26.7,29.36,ENE,67,0.0,0.0,55,0.00,,,0.00,WUHU21623XXSP,2013-03-27 18:31:00,
2013-03-27 13:36:00,41.4,26.3,29.35,SE,135,2.2,2.2,55,0.00,,,0.00,WUHU21623XXSP,2013-03-27 18:36:00,
2013-03-27 13:41:00,41.4,26.3,29.36,SSW,202,0.0,2.2,55,0.00,,,0.00,WUHU21623XXSP,2013-03-27 18:41:00,
2013-03-27 13:46:00,41.4,26.3,29.36,SSW,202,1.1,2.2,55,0.00,,,0.00,WUHU21623XXSP,2013-03-27 18:46:00,
2013-03-27 13:51:00,41.2,26.1,29.35,SE,135,2.0,2.0,55,0.00,,,0.00,WUHU21623XXSP,2013-03-27 18:51:00,
2013-03-27 13:57:00,41.4,26.6,29.36,SE,135,2.5,2.5,56,0.00,,,0.00,WUHU21623XXSP,2013-03-27 18:57:00,
2013-03-27 14:02:00,41.5,26.5,29.35,South,180,1.3,2.5,55,0.00,,,0.00,WUHU21623XXSP,2013-03-27 19:02:00,
2013-03-27 14:07:00,41.7,26.7,29.35,South,180,2.9,2.9,55,0.00,,,0.00,WUHU21623XXSP,2013-03-27 19:07:00,
2013-03-27 14:12:00,41.7,26.7,29.35,SW,225,2.9,2.9,55,0.00,,,0.00,WUHU21623XXSP,2013-03-27 19:12:00,
2013-03-27 14:17:00,41.4,25.9,29.35,West,270,0.0,2.9,54,0.00,,,0.00,WUHU21623XXSP,2013-03-27 19:17:00,
2013-03-27 14:22:00,41.2,25.7,29.35,SSW,202,2.2,2.2,54,0.00,,,0.00,WUHU21623XXSP,2013-03-27 19:22:00,
2013-03-27 14:27:00,41.2,25.7,29.34,SSW,202,3.8,3.8,54,0.00,,,0.00,WUHU21623XXSP,2013-03-27 19:27:00,
2013-03-27 14:32:00,41.0,25.5,29.35,WNW,292,0.0,3.8,54,0.00,,,0.00,WUHU21623XXSP,2013-03-27 19:32:00,
2013-03-27 14:37:00,40.8,24.9,29.34,SSE,157,0.9,2.0,53,0.00,,,0.00,WUHU21623XXSP,2013-03-27 19:37:00,
2013-03-27 14:42:00,40.8,25.3,29.34,South,180,3.1,3.6,54,0.00,,,0.00,WUHU21623XXSP,2013-03-27 19:42:00,
2013-03-27 14:47:00,40.8,25.3,29.34,South,180,1.3,3.6,54,0.00,,,0.00,WUHU21623XXSP,2013-03-27 19:47:00,
2013-03-27 14:52:00,41.2,26.1,29.33,SSE,157,1.3,3.1,55,0.00,,,0.00,WUHU21623XXSP,2013-03-27 19:52:00,
2013-03-27 14:57:00,41.4,25.4,29.34,SE,135,0.0,2.9,53,0.00,,,0.00,WUHU21623XXSP,2013-03-27 19:57:00,
2013-03-27 15:02:00,41.5,25.6,29.34,SSE,157,0.0,2.9,53,0.00,,,0.00,WUHU21623XXSP,2013-03-27 20:02:00,
2013-03-27 15:07:00,41.4,25.4,29.34,SE,135,0.0,0.0,53,0.00,,,0.00,WUHU21623XXSP,2013-03-27 20:07:00,
2013-03-27 15:12:00,41.4,25.4,29.33,SE,135,0.9,0.9,54,0.00,,,0.00,WUHU21623XXSP,2013-03-27 20:12:00,
2013-03-27 15:17:00,41.4,26.3,29.33,West,270,0.0,0.9,55,0.00,,,0.00,WUHU21623XXSP,2013-03-27 20:17:00,
2013-03-27 15:22:00,41.5,25.9,29.33,NNW,337,0.0,0.9,54,0.00,,,0.00,WUHU21623XXSP,2013-03-27 20:22:00,
2013-03-27 15:27:00,41.2,26.1,29.33,WSW,247,1.8,1.8,55,0.00,,,0.00,WUHU21623XXSP,2013-03-27 20:27:00,
2013-03-27 15:32:00,41.4,25.9,29.33,West,270,1.3,3.1,54,0.00,,,0.00,WUHU21623XXSP,2013-03-27 20:32:00,
2013-03-27 15:37:00,41.2,25.7,29.33,NW,315,1.1,3.1,54,0.00,,,0.00,WUHU21623XXSP,2013-03-27 20:37:00,
2013-03-27 15:42:00,40.8,26.0,29.33,SSE,157,2.2,2.2,55,0.00,,,0.00,WUHU21623XXSP,2013-03-27 20:42:00,
2013-03-27 15:47:00,41.2,26.0,29.33,SSE,157,2.2,2.2,56,0.00,,,0.00,WUHU21623XXSP,2013-03-27 20:47:00,
2013-03-27 15:52:00,41.4,26.7,29.32,SSE,157,2.9,3.1,56,0.00,,,0.00,WUHU21623XXSP,2013-03-27 20:52:00,
2013-03-27 15:57:00,41.5,26.5,29.32,SSE,157,1.6,3.1,55,0.00,,,0.00,WUHU21623XXSP,2013-03-27 20:57:00,
2013-03-27 16:02:00,41.5,26.5,29.32,ESE,112,0.0,1.6,55,0.00,,,0.00,WUHU21623XXSP,2013-03-27 21:02:00,
2013-03-27 16:07:00,41.7,26.7,29.33,SW,225,0.0,0.0,55,0.00,,,0.00,WUHU21623XXSP,2013-03-27 21:07:00,
2013-03-27 16:12:00,41.5,26.5,29.32,West,270,2.9,2.9,55,0.00,,,0.00,WUHU21623XXSP,2013-03-27 21:12:00,
2013-03-27 16:17:00,41.4,26.7,29.33,SW,225,1.1,2.9,56,0.00,,,0.00,WUHU21623XXSP,2013-03-27 21:17:00,
2013-03-27 16:22:00,41.2,26.6,29.33,SW,225,2.0,2.9,56,0.00,,,0.00,WUHU21623XXSP,2013-03-27 21:22:00,
2013-03-27 16:27:00,41.4,27.2,29.33,WSW,247,2.2,2.2,57,0.00,,,0.00,WUHU21623XXSP,2013-03-27 21:27:00,
2013-03-27 16:32:00,41.2,26.6,29.32,WSW,247,0.0,2.5,56,0.00,,,0.00,WUHU21623XXSP,2013-03-27 21:32:00,
2013-03-27 16:37:00,41.2,26.6,29.32,WSW,247,0.0,2.5,56,0.00,,,0.00,WUHU21623XXSP,2013-03-27 21:37:00,
2013-03-27 16:42:00,41.4,27.2,29.32,WSW,247,0.0,1.1,57,0.00,,,0.00,WUHU21623XXSP,2013-03-27 21:42:00,
2013-03-27 16:47:00,41.2,27.0,29.32,WSW,247,2.5,2.5,57,0.00,,,0.00,WUHU21623XXSP,2013-03-27 21:47:00,
2013-03-27 16:52:00,41.2,27.0,29.32,West,270,0.0,2.5,57,0.00,,,0.00,WUHU21623XXSP,2013-03-27 21:52:00,
2013-03-27 16:57:00,41.0,26.9,29.32,WSW,247,1.6,1.6,57,0.00,,,0.00,WUHU21623XXSP,2013-03-27 21:57:00,
2013-03-27 17:02:00,40.8,26.7,29.32,WSW,247,0.0,1.6,57,0.00,,,0.00,WUHU21623XXSP,2013-03-27 22:02:00,
2013-03-27 17:07:00,41.2,27.0,29.32,West,270,1.1,1.1,57,0.00,,,0.00,WUHU21623XXSP,2013-03-27 22:07:00,
2013-03-27 17:12:00,41.2,27.0,29.32,SW,225,0.0,1.1,58,0.00,,,0.00,WUHU21623XXSP,2013-03-27 22:12:00,
2013-03-27 17:17:00,40.8,27.1,29.32,WSW,247,2.2,2.2,58,0.00,,,0.00,WUHU21623XXSP,2013-03-27 22:17:00,
2013-03-27 17:22:00,41.0,27.3,29.32,SW,225,2.9,4.7,58,0.00,,,0.00,WUHU21623XXSP,2013-03-27 22:22:00,
2013-03-27 17:27:00,40.8,27.1,29.32,WSW,247,2.9,4.7,58,0.00,,,0.00,WUHU21623XXSP,2013-03-27 22:27:00,
2013-03-27 17:32:00,40.8,27.1,29.32,WSW,247,2.5,2.9,58,0.00,,,0.00,WUHU21623XXSP,2013-03-27 22:32:00,
2013-03-27 17:37:00,40.8,27.6,29.32,WSW,247,2.5,2.9,59,0.00,,,0.00,WUHU21623XXSP,2013-03-27 22:37:00,
2013-03-27 17:43:00,40.8,27.6,29.32,WSW,247,1.6,2.5,59,0.00,,,0.00,WUHU21623XXSP,2013-03-27 22:43:00,
2013-03-27 17:48:00,40.6,27.0,29.32,SW,225,0.0,1.6,58,0.00,,,0.00,WUHU21623XXSP,2013-03-27 22:48:00,
2013-03-27 17:53:00,40.1,27.3,29.31,NNW,337,5.8,7.6,60,0.00,,,0.00,WUHU21623XXSP,2013-03-27 22:53:00,
2013-03-27 17:58:00,39.6,26.8,29.31,NNW,337,6.3,7.6,60,0.00,,,0.00,WUHU21623XXSP,2013-03-27 22:58:00,
2013-03-27 18:03:00,39.0,27.0,29.32,NNW,337,5.4,6.3,61,0.00,,,0.00,WUHU21623XXSP,2013-03-27 23:03:00,
2013-03-27 18:08:00,38.8,26.5,29.31,NNW,337,3.6,5.4,61,0.00,,,0.00,WUHU21623XXSP,2013-03-27 23:08:00,
2013-03-27 18:13:00,38.5,26.7,29.32,North,0,3.6,5.4,62,0.00,,,0.00,WUHU21623XXSP,2013-03-27 23:13:00,
2013-03-27 18:18:00,38.5,26.5,29.31,North,0,3.8,3.8,62,0.00,,,0.00,WUHU21623XXSP,2013-03-27 23:18:00,
2013-03-27 18:23:00,37.9,26.4,29.31,NNW,337,4.3,4.3,63,0.00,,,0.00,WUHU21623XXSP,2013-03-27 23:23:00,
2013-03-27 18:28:00,37.9,26.4,29.31,North,0,4.0,4.3,63,0.00,,,0.00,WUHU21623XXSP,2013-03-27 23:28:00,
2013-03-27 18:33:00,37.8,26.6,29.32,NNW,337,3.6,4.0,64,0.00,,,0.00,WUHU21623XXSP,2013-03-27 23:33:00,
2013-03-27 18:38:00,37.4,26.7,29.32,North,0,2.5,3.6,65,0.00,,,0.00,WUHU21623XXSP,2013-03-27 23:38:00,
2013-03-27 18:43:00,37.0,26.5,29.32,North,0,3.6,3.6,65,0.00,,,0.00,WUHU21623XXSP,2013-03-27 23:43:00,
2013-03-27 18:48:00,36.9,26.3,29.32,NNW,337,3.1,3.6,66,0.00,,,0.00,WUHU21623XXSP,2013-03-27 23:48:00,
2013-03-27 18:53:00,36.5,26.6,29.32,NNW,337,3.6,3.6,67,0.00,,,0.00,WUHU21623XXSP,2013-03-27 23:53:00,
2013-03-27 18:58:00,36.0,26.0,29.32,NNW,337,4.0,4.3,67,0.00,,,0.00,WUHU21623XXSP,2013-03-27 23:58:00,
2013-03-27 19:03:00,35.8,26.2,29.32,NNW,337,4.0,4.3,68,0.00,,,0.00,WUHU21623XXSP,2013-03-28 00:03:00,
2013-03-27 19:08:00,35.2,26.1,29.32,North,0,4.0,4.5,69,0.00,,,0.00,WUHU21623XXSP,2013-03-28 00:08:00,
2013-03-27 19:13:00,34.9,25.7,29.32,North,0,4.5,4.7,69,0.00,,,0.00,WUHU21623XXSP,2013-03-28 00:13:00,
2013-03-27 19:18:00,34.5,25.3,29.32,North,0,4.0,4.7,69,0.00,,,0.00,WUHU21623XXSP,2013-03-28 00:18:00,
2013-03-27 19:23:00,34.2,25.0,29.33,North,0,3.8,4.5,70,0.00,,,0.00,WUHU21623XXSP,2013-03-28 00:23:00,
2013-03-27 19:28:00,33.6,24.8,29.32,North,0,4.3,4.3,70,0.00,,,0.00,WUHU21623XXSP,2013-03-28 00:28:00,
2013-03-27 19:33:00,33.4,24.7,29.32,North,0,3.1,4.3,70,0.00,,,0.00,WUHU21623XXSP,2013-03-28 00:33:00,
2013-03-27 19:38:00,32.9,24.5,29.32,North,0,2.5,4.3,71,0.00,,,0.00,WUHU21623XXSP,2013-03-28 00:38:00,
2013-03-27 19:43:00,32.5,24.5,29.32,North,0,4.0,4.0,72,0.00,,,0.00,WUHU21623XXSP,2013-03-28 00:43:00,
2013-03-27 19:48:00,32.2,24.5,29.33,North,0,3.6,4.0,73,0.00,,,0.00,WUHU21623XXSP,2013-03-28 00:48:00,
2013-03-27 19:53:00,31.8,24.5,29.33,North,0,2.0,3.6,74,0.00,,,0.00,WUHU21623XXSP,2013-03-28 00:53:00,
2013-03-27 19:58:00,31.8,24.5,29.33,North,0,2.0,3.6,74,0.00,,,0.00,WUHU21623XXSP,2013-03-28 00:58:00,
2013-03-27 20:03:00,31.6,24.8,29.33,North,0,2.0,2.0,75,0.00,,,0.00,WUHU21623XXSP,2013-03-28 01:03:00,
2013-03-27 20:08:00,31.6,24.6,29.33,North,0,1.6,2.0,75,0.00,,,0.00,WUHU21623XXSP,2013-03-28 01:08:00,
2013-03-27 20:13:00,31.5,24.6,29.33,North,0,3.6,3.6,75,0.00,,,0.00,WUHU21623XXSP,2013-03-28 01:13:00,
2013-03-27 20:18:00,31.3,24.6,29.34,North,0,1.3,3.8,76,0.00,,,0.00,WUHU21623XXSP,2013-03-28 01:18:00,
2013-03-27 20:23:00,31.1,24.4,29.33,North,0,3.4,3.8,76,0.00,,,0.00,WUHU21623XXSP,2013-03-28 01:23:00,
2013-03-27 20:28:00,31.3,24.6,29.34,North,0,2.5,3.4,76,0.00,,,0.00,WUHU21623XXSP,2013-03-28 01:28:00,
2013-03-27 20:33:00,31.1,24.4,29.34,North,0,1.1,2.5,76,0.00,,,0.00,WUHU21623XXSP,2013-03-28 01:33:00,
2013-03-27 20:38:00,31.1,24.7,29.33,North,0,2.9,2.9,77,0.00,,,0.00,WUHU21623XXSP,2013-03-28 01:38:00,
2013-03-27 20:43:00,31.1,24.7,29.34,North,0,3.8,3.8,77,0.00,,,0.00,WUHU21623XXSP,2013-03-28 01:43:00,
2013-03-27 20:48:00,30.9,24.5,29.34,North,0,4.0,4.7,77,0.00,,,0.00,WUHU21623XXSP,2013-03-28 01:48:00,
2013-03-27 20:53:00,30.7,24.4,29.34,North,0,4.0,4.7,77,0.00,,,0.00,WUHU21623XXSP,2013-03-28 01:53:00,
2013-03-27 20:58:00,30.7,24.4,29.34,North,0,3.8,4.7,77,0.00,,,0.00,WUHU21623XXSP,2013-03-28 01:58:00,
2013-03-27 21:04:00,30.6,24.2,29.34,North,0,4.3,6.3,77,0.00,,,0.00,WUHU21623XXSP,2013-03-28 02:04:00,
2013-03-27 21:09:00,30.4,24.0,29.35,North,0,3.6,6.3,77,0.00,,,0.00,WUHU21623XXSP,2013-03-28 02:09:00,
2013-03-27 21:14:00,30.4,23.7,29.34,North,0,2.7,3.6,76,0.00,,,0.00,WUHU21623XXSP,2013-03-28 02:14:00,
2013-03-27 21:19:00,30.6,23.9,29.35,North,0,1.6,2.7,76,0.00,,,0.00,WUHU21623XXSP,2013-03-28 02:19:00,
2013-03-27 21:24:00,30.6,24.2,29.34,North,0,2.0,2.7,77,0.00,,,0.00,WUHU21623XXSP,2013-03-28 02:24:00,
2013-03-27 21:29:00,30.6,23.9,29.34,North,0,2.5,2.5,76,0.00,,,0.00,WUHU21623XXSP,2013-03-28 02:29:00,
2013-03-27 21:34:00,30.7,24.0,29.34,North,0,0.0,2.5,76,0.00,,,0.00,WUHU21623XXSP,2013-03-28 02:34:00,
2013-03-27 21:39:00,30.7,24.0,29.34,North,0,2.2,2.5,76,0.00,,,0.00,WUHU21623XXSP,2013-03-28 02:39:00,
2013-03-27 21:44:00,30.7,24.0,29.34,North,0,1.6,2.2,76,0.00,,,0.00,WUHU21623XXSP,2013-03-28 02:44:00,
2013-03-27 21:49:00,30.7,24.0,29.33,North,0,1.1,2.0,76,0.00,,,0.00,WUHU21623XXSP,2013-03-28 02:49:00,
2013-03-27 21:54:00,30.6,23.9,29.34,North,0,0.0,1.6,76,0.00,,,0.00,WUHU21623XXSP,2013-03-28 02:54:00,
2013-03-27 21:59:00,30.6,23.9,29.34,North,0,0.9,0.9,76,0.00,,,0.00,WUHU21623XXSP,2013-03-28 02:59:00,
2013-03-27 22:04:00,30.4,23.7,29.34,North,0,2.0,2.0,76,0.00,,,0.00,WUHU21623XXSP,2013-03-28 03:04:00,
2013-03-27 22:09:00,30.6,23.9,29.34,North,0,0.9,2.0,76,0.00,,,0.00,WUHU21623XXSP,2013-03-28 03:09:00,
2013-03-27 22:14:00,30.6,23.9,29.34,North,0,0.9,1.3,76,0.00,,,0.00,WUHU21623XXSP,2013-03-28 03:14:00,
2013-03-27 22:19:00,30.6,23.5,29.34,North,0,0.9,0.9,75,0.00,,,0.00,WUHU21623XXSP,2013-03-28 03:19:00,
2013-03-27 22:24:00,30.6,23.5,29.33,North,0,0.9,0.9,75,0.00,,,0.00,WUHU21623XXSP,2013-03-28 03:24:00,
2013-03-27 22:29:00,30.4,23.5,29.34,North,0,2.0,2.0,75,0.00,,,0.00,WUHU21623XXSP,2013-03-28 03:29:00,
2013-03-27 22:34:00,30.4,23.4,29.34,North,0,2.0,2.0,75,0.00,,,0.00,WUHU21623XXSP,2013-03-28 03:34:00,
2013-03-27 22:39:00,30.2,23.2,29.34,North,0,1.1,2.0,75,0.00,,,0.00,WUHU21623XXSP,2013-03-28 03:39:00,
2013-03-27 22:44:00,30.0,23.0,29.34,North,0,1.8,1.8,75,0.00,,,0.00,WUHU21623XXSP,2013-03-28 03:44:00,
2013-03-27 22:49:00,30.0,23.3,29.34,North,0,0.0,1.8,76,0.00,,,0.00,WUHU21623XXSP,2013-03-28 03:49:00,
2013-03-27 22:54:00,30.0,23.3,29.34,North,0,0.0,1.1,76,0.00,,,0.00,WUHU21623XXSP,2013-03-28 03:54:00,
2013-03-27 22:59:00,30.0,23.3,29.34,North,0,0.0,0.0,75,0.00,,,0.00,WUHU21623XXSP,2013-03-28 03:59:00,
2013-03-27 23:00:00,30.0,23.3,29.34,North,0,0.0,0.0,76,0.00,,,0.00,WUHU21623XXSP,2013-03-28 04:00:00,
2013-03-27 23:05:00,30.0,23.3,29.34,North,0,0.0,0.0,76,0.00,,,0.00,WUHU21623XXSP,2013-03-28 04:05:00,
2013-03-27 23:10:00,30.0,23.0,29.34,North,0,1.3,1.3,75,0.00,,,0.00,WUHU21623XXSP,2013-03-28 04:10:00,
2013-03-27 23:15:00,30.0,23.0,29.34,North,0,0.9,1.3,75,0.00,,,0.00,WUHU21623XXSP,2013-03-28 04:15:00,
2013-03-27 23:20:00,29.8,23.1,29.34,North,0,0.9,1.3,76,0.00,,,0.00,WUHU21623XXSP,2013-03-28 04:20:00,
2013-03-27 23:25:00,29.7,23.0,29.34,North,0,0.0,0.9,76,0.00,,,0.00,WUHU21623XXSP,2013-03-28 04:25:00,
2013-03-27 23:30:00,29.3,22.8,29.34,North,0,0.9,0.9,76,0.00,,,0.00,WUHU21623XXSP,2013-03-28 04:30:00,
2013-03-27 23:35:00,29.1,22.5,29.35,North,0,0.0,0.9,76,0.00,,,0.00,WUHU21623XXSP,2013-03-28 04:35:00,
2013-03-27 23:40:00,28.9,22.6,29.34,NNW,337,2.2,2.2,77,0.00,,,0.00,WUHU21623XXSP,2013-03-28 04:40:00,
2013-03-27 23:45:00,28.6,22.2,29.34,NNW,337,0.9,2.5,77,0.00,,,0.00,WUHU21623XXSP,2013-03-28 04:45:00,
2013-03-27 23:50:00,28.6,22.2,29.34,NNW,337,0.7,2.5,77,0.00,,,0.00,WUHU21623XXSP,2013-03-28 04:50:00,
2013-03-27 23:55:00,28.6,22.2,29.34,NNW,337,1.6,1.6,77,0.00,,,0.00,WUHU21623XXSP,2013-03-28 04:55:00,